When you browse on this site, cookies collect data to enhance your experience and personalize the content and advertising you see.
Visit our Privacy Policy to learn more. By continuing to use the site, you agree to this use of cookies and data.
  • In Czech Republic
  • List of Countries
  • For 7 days
  • Water Temperature
  • Weather Map
  • Weather Widgets
  • user-avatar
    Login

    Hourly Weather Cioara

    Today, 16 September, Monday

    Time Temperature Precipitation Wind Pressure Humidity
    00:00 +14°C° 0 mm 3 mps 760 mmHg 47%
    01:00 +14°C° 0 mm 3 mps 760 mmHg 51%
    02:00 +13°C° 0 mm 3 mps 759 mmHg 56%
    03:00 +14°C° 0 mm 2 mps 759 mmHg 59%
    04:00 +13°C° 0 mm 2 mps 759 mmHg 62%
    05:00 +12°C° 0 mm 1 mps 759 mmHg 66%
    06:00 +14°C° 0 mm 1 mps 758 mmHg 58%
    07:00 +16°C° 0 mm 2 mps 758 mmHg 51%
    08:00 +18°C° 0 mm 2 mps 758 mmHg 44%
    09:00 +21°C° 0 mm 3 mps 758 mmHg 38%
    10:00 +24°C° 0 mm 3 mps 758 mmHg 32%
    11:00 +27°C° 0 mm 3 mps 757 mmHg 26%
    12:00 +28°C° 0 mm 3 mps 757 mmHg 25%
    13:00 +29°C° 0 mm 3 mps 756 mmHg 23%
    14:00 +30°C° 0 mm 3 mps 756 mmHg 22%
    15:00 +29°C° 0 mm 3 mps 756 mmHg 22%
    16:00 +29°C° 0 mm 2 mps 755 mmHg 23%
    17:00 +29°C° 0 mm 2 mps 755 mmHg 24%
    18:00 +26°C° 0 mm 2 mps 755 mmHg 27%
    19:00 +24°C° 0 mm 1 mps 755 mmHg 31%
    20:00 +22°C° 0 mm 1 mps 755 mmHg 34%
    21:00 +21°C° 0 mm 1 mps 755 mmHg 37%
    22:00 +19°C° 0 mm 2 mps 755 mmHg 40%
    23:00 +18°C° 0 mm 2 mps 755 mmHg 43%

    Tomorrow, 17 September, Tuesday

    Time Temperature Precipitation Wind Pressure Humidity
    00:00 +18°C° 0 mm 2 mps 755 mmHg 50%
    01:00 +18°C° 0 mm 1 mps 755 mmHg 57%
    02:00 +16°C° 0 mm 1 mps 755 mmHg 64%
    03:00 +16°C° 0 mm 1 mps 755 mmHg 68%
    04:00 +15°C° 0 mm 1 mps 755 mmHg 71%
    05:00 +15°C° 0 mm 1 mps 754 mmHg 74%
    06:00 +16°C° 0 mm 1 mps 754 mmHg 70%
    07:00 +18°C° 0 mm 1 mps 754 mmHg 66%
    08:00 +18°C° 0 mm 2 mps 754 mmHg 63%
    09:00 +20°C° 0 mm 1 mps 754 mmHg 60%
    10:00 +21°C° 0 mm 1 mps 754 mmHg 57%
    11:00 +22°C° 0 mm 1 mps 754 mmHg 55%
    12:00 +23°C° 0 mm 2 mps 754 mmHg 51%
    13:00 +24°C° 0 mm 2 mps 754 mmHg 48%
    14:00 +25°C° 0 mm 3 mps 753 mmHg 45%
    15:00 +25°C° 0 mm 3 mps 753 mmHg 47%
    16:00 +24°C° 0 mm 3 mps 753 mmHg 50%
    17:00 +22°C° 0 mm 3 mps 753 mmHg 53%
    18:00 +20°C° 0 mm 3 mps 753 mmHg 61%
    19:00 +18°C° 0 mm 2 mps 753 mmHg 70%
    20:00 +16°C° 0 mm 1 mps 753 mmHg 79%
    21:00 +16°C° 0 mm 1 mps 753 mmHg 79%
    22:00 +16°C° 0 mm 1 mps 753 mmHg 80%
    23:00 +15°C° 0 mm 1 mps 752 mmHg 81%

    Day after tomorrow, 18 September, Wednesday

    Time Temperature Precipitation Wind Pressure Humidity
    00:00 +16°C° 0 mm 1 mps 752 mmHg 79%
    01:00 +16°C° 0 mm 2 mps 752 mmHg 77%
    02:00 +16°C° 0 mm 2 mps 752 mmHg 75%
    03:00 +16°C° 0 mm 2 mps 752 mmHg 76%
    04:00 +16°C° 0 mm 2 mps 752 mmHg 77%
    05:00 +16°C° 0 mm 3 mps 752 mmHg 78%
    06:00 +15°C° 0 mm 4 mps 753 mmHg 72%
    07:00 +15°C° 0 mm 5 mps 754 mmHg 66%
    08:00 +15°C° 0 mm 6 mps 754 mmHg 60%
    09:00 +14°C° 0 mm 6 mps 755 mmHg 57%
    10:00 +12°C° 0 mm 7 mps 756 mmHg 54%
    11:00 +11°C° 0 mm 7 mps 757 mmHg 51%
    12:00 +14°C° 0 mm 7 mps 757 mmHg 43%
    13:00 +16°C° 0 mm 8 mps 757 mmHg 35%
    14:00 +18°C° 0 mm 8 mps 757 mmHg 27%
    15:00 +18°C° 0 mm 8 mps 757 mmHg 29%
    16:00 +17°C° 0 mm 7 mps 757 mmHg 31%
    17:00 +17°C° 0 mm 6 mps 758 mmHg 32%
    18:00 +15°C° 0 mm 5 mps 758 mmHg 39%
    19:00 +12°C° 0 mm 4 mps 759 mmHg 45%
    20:00 +10°C° 0 mm 3 mps 760 mmHg 52%
    21:00 +10°C° 0 mm 3 mps 760 mmHg 55%
    22:00 +9°C° 0 mm 3 mps 761 mmHg 59%
    23:00 +8°C° 0 mm 2 mps 761 mmHg 62%

    19 September, Thursday

    Time Temperature Precipitation Wind Pressure Humidity
    00:00 +8°C° 0 mm 2 mps 762 mmHg 65%
    01:00 +8°C° 0 mm 1 mps 762 mmHg 67%
    02:00 +8°C° 0 mm 1 mps 762 mmHg 70%
    03:00 +7°C° 0 mm 1 mps 762 mmHg 71%
    04:00 +7°C° 0 mm 1 mps 762 mmHg 72%
    05:00 +7°C° 0 mm 1 mps 762 mmHg 72%
    06:00 +9°C° 0 mm 1 mps 762 mmHg 64%
    07:00 +11°C° 0 mm 1 mps 762 mmHg 56%
    08:00 +13°C° 0 mm 1 mps 762 mmHg 48%
    09:00 +14°C° 0 mm 1 mps 761 mmHg 42%
    10:00 +16°C° 0 mm 2 mps 761 mmHg 37%
    11:00 +18°C° 0 mm 2 mps 761 mmHg 31%
    12:00 +19°C° 0 mm 2 mps 761 mmHg 28%
    13:00 +20°C° 0 mm 3 mps 760 mmHg 26%
    14:00 +21°C° 0 mm 3 mps 759 mmHg 23%
    15:00 +21°C° 0 mm 2 mps 759 mmHg 23%
    16:00 +21°C° 0 mm 2 mps 759 mmHg 24%
    17:00 +20°C° 0 mm 2 mps 759 mmHg 25%
    18:00 +18°C° 0 mm 3 mps 759 mmHg 31%
    19:00 +15°C° 0 mm 4 mps 760 mmHg 38%
    20:00 +13°C° 0 mm 5 mps 760 mmHg 45%
    21:00 +12°C° 0 mm 4 mps 761 mmHg 48%
    22:00 +11°C° 0 mm 3 mps 761 mmHg 51%
    23:00 +9°C° 0 mm 2 mps 761 mmHg 55%

    20 September, Friday

    Time Temperature Precipitation Wind Pressure Humidity
    00:00 +9°C° 0 mm 2 mps 761 mmHg 54%
    01:00 +9°C° 0 mm 2 mps 761 mmHg 53%
    02:00 +10°C° 0 mm 1 mps 761 mmHg 52%
    03:00 +9°C° 0 mm 2 mps 761 mmHg 56%
    04:00 +8°C° 0 mm 2 mps 761 mmHg 59%
    05:00 +7°C° 0 mm 3 mps 761 mmHg 63%
    06:00 +7°C° 0 mm 4 mps 761 mmHg 61%
    07:00 +8°C° 0 mm 5 mps 761 mmHg 59%
    08:00 +10°C° 0 mm 6 mps 761 mmHg 58%
    09:00 +11°C° 0 mm 7 mps 761 mmHg 56%
    10:00 +11°C° 0 mm 8 mps 762 mmHg 54%
    11:00 +12°C° 0 mm 8 mps 762 mmHg 53%
    12:00 +13°C° 0 mm 8 mps 762 mmHg 46%
    13:00 +15°C° 0 mm 9 mps 762 mmHg 39%
    14:00 +16°C° 0 mm 9 mps 761 mmHg 32%
    15:00 +15°C° 0 mm 9 mps 762 mmHg 35%
    16:00 +13°C° 0 mm 9 mps 762 mmHg 38%
    17:00 +12°C° 0 mm 9 mps 762 mmHg 40%
    18:00 +10°C° 0 mm 7 mps 763 mmHg 49%
    19:00 +8°C° 0 mm 5 mps 763 mmHg 59%
    20:00 +6°C° 0 mm 4 mps 764 mmHg 68%
    21:00 +6°C° 0 mm 4 mps 764 mmHg 70%
    22:00 +5°C° 0 mm 3 mps 764 mmHg 72%
    23:00 +5°C° 0 mm 3 mps 765 mmHg 74%

    21 September, Saturday

    Time Temperature Precipitation Wind Pressure Humidity
    00:00 +5°C° 0 mm 3 mps 765 mmHg 74%
    01:00 +5°C° 0 mm 4 mps 765 mmHg 74%
    02:00 +5°C° 0 mm 4 mps 765 mmHg 75%
    03:00 +4°C° 0 mm 4 mps 766 mmHg 78%
    04:00 +4°C° 0 mm 4 mps 766 mmHg 82%
    05:00 +3°C° 0 mm 4 mps 766 mmHg 86%
    06:00 +5°C° 0 mm 4 mps 767 mmHg 80%
    07:00 +6°C° 0 mm 5 mps 767 mmHg 74%
    08:00 +7°C° 0 mm 6 mps 767 mmHg 69%
    09:00 +9°C° 0 mm 6 mps 767 mmHg 60%
    10:00 +11°C° 0 mm 6 mps 768 mmHg 51%
    11:00 +14°C° 0 mm 6 mps 768 mmHg 42%
    12:00 +15°C° 0 mm 6 mps 767 mmHg 38%
    13:00 +15°C° 0 mm 5 mps 767 mmHg 33%
    14:00 +16°C° 0 mm 5 mps 767 mmHg 28%
    15:00 +16°C° 0 mm 5 mps 767 mmHg 28%
    16:00 +15°C° 0 mm 4 mps 767 mmHg 28%
    17:00 +15°C° 0 mm 4 mps 767 mmHg 28%
    18:00 +13°C° 0 mm 3 mps 767 mmHg 32%
    19:00 +12°C° 0 mm 2 mps 768 mmHg 37%
    20:00 +9°C° 0 mm 2 mps 768 mmHg 41%
    21:00 +9°C° 0 mm 1 mps 768 mmHg 43%
    22:00 +9°C° 0 mm 1 mps 768 mmHg 44%
    23:00 +8°C° 0 mm 1 mps 769 mmHg 46%
    Show more